Tracking 19476 objects as of 17-Jan-2019
HD Live streaming from Space Station
objects crossing your sky now

SECOR 1B

Track SECOR 1B now!
10-day predictions
SECOR 1B is classified as:


NORAD ID: 729
Int'l Code: 1964-001C
Perigee: 906.6 km
Apogee: 930.7 km
Inclination: 69.9 °
Period: 103.2 minutes
Semi major axis: 7289 km
RCS: 0.2364 m2 (medium)
Launch date: January 11, 1964
Source: United States (US)
Launch site: AIR FORCE WESTERN TEST RANGE (AFWTR)
aabbcc
Your satellite tracking list
Your tracking list is empty




NASA's NSSDC Master Catalog

Two Line Element Set (TLE):
1   729U 64001C   19017.18281096 -.00000027  00000-0  19540-4 0  9995
2   729  69.9020 339.8078 0016516 301.3583  58.5905 13.94888293799592
Source of the keplerian elements: AFSPC